Regional Weather Roundup
Issued by NWS Tiyan, Guam

Home | Current Version | Previous Version | Text Only | Print | Product List | Glossary On
Versions: 1 2 3 4 5 6 7 8 9 10 11 12 13 14 15 16 17 18 19 20 21 22 23 24 25 26 27
000
ASGM40 PGUM 010012
RWRGUM
WEATHER ROUNDUP FOR THE MARIANAS
NATIONAL WEATHER SERVICE TIYAN GU
1000 AM CHST SAT NOV 01 2014

GUZ001>004-010100-
MARIANA ISLANDS-

CITY           SKY/WX    TMP DP  RH WIND       PRES   REMARKS
GUAM AIRPORT   SUNNY     82  77  83 W8        29.86S HX  91
ANDERSEN AFB   MOSUNNY   82  75  78 NW10      29.86R
ROTA AIRPORT   PTSUNNY   82  77  83 VRB6      29.86R HX  91
TINIAN AP      LGT RAIN  79  77  94 SW3       29.85R
SAIPAN AP      CLOUDY    79  75  89 SW9       29.87R

$$




USA.gov is the U.S. government's official web portal to all federal, state and local government web resources and services.